| time (UTC) | temp C | wind direction | speed KPH | gust KPH | rain 1hr cm | rain 24hr cm | rain mn cm | humidity % | barometer mb |
| 20260509131551 | 17 | 232 | 0.0 | 0.0 | 0.00 | 0.00 | 0.00 | 38 | 1021.1 |
| 20260509130051 | 17 | 285 | 0.0 | 0.0 | 0.00 | 0.00 | 0.00 | 38 | 1021.2 |
| 20260509124550 | 17 | 307 | 0.0 | 0.0 | 0.00 | 0.00 | 0.00 | 38 | 1021.3 |
| 20260509121547 | 18 | 269 | 0.0 | 0.0 | 0.00 | 0.00 | 0.00 | 40 | 1021.6 |
| 20260509120058 | 17 | 360 | 0.0 | 0.0 | 0.00 | 0.00 | 0.00 | 41 | 1021.7 |
| 20260509114543 | 17 | 319 | 0.0 | 0.0 | 0.00 | 0.00 | 0.00 | 41 | 1021.9 |
| 20260509111544 | 17 | 324 | 0.0 | 0.0 | 0.00 | 0.00 | 0.00 | 40 | 1022.1 |
| 20260509110045 | 17 | 315 | 0.0 | 0.0 | 0.00 | 0.00 | 0.00 | 40 | 1022.4 |
| 20260509104540 | 17 | 246 | 0.0 | 0.0 | 0.00 | 0.00 | 0.00 | 39 | 1022.7 |
| 20260509101550 | 16 | 284 | 0.0 | 0.0 | 0.00 | 0.00 | 0.00 | 41 | 1022.9 |
| 20260509100043 | 16 | 360 | 0.0 | 0.0 | 0.00 | 0.00 | 0.00 | 42 | 1023.1 |
| 20260509094536 | 17 | 245 | 0.0 | 0.0 | 0.00 | 0.00 | 0.00 | 41 | 1023.1 |
| 20260509091536 | 16 | 311 | 0.0 | 0.0 | 0.00 | 0.00 | 0.00 | 44 | 1023.3 |
| 20260509090041 | 16 | 286 | 0.0 | 0.0 | 0.00 | 0.00 | 0.00 | 47 | 1023.2 |
| 20260509084538 | 16 | 42 | 0.0 | 0.0 | 0.00 | 0.00 | 0.00 | 50 | 1023.2 |
| 20260509081527 | 15 | 280 | 0.0 | 0.0 | 0.00 | 0.00 | 0.00 | 55 | 1023.3 |
| 20260509080027 | 15 | 256 | 0.0 | 0.0 | 0.00 | 0.00 | 0.00 | 53 | 1023.3 |
| 20260509074525 | 15 | 360 | 0.0 | 0.0 | 0.00 | 0.00 | 0.00 | 55 | 1023.4 |
| 20260509071532 | 15 | 248 | 0.0 | 0.0 | 0.00 | 0.00 | 0.00 | 61 | 1023.5 |
| 20260509070026 | 14 | 360 | 0.0 | 0.0 | 0.00 | 0.00 | 0.00 | 65 | 1023.5 |
| 20260509064523 | 13 | 360 | 0.0 | 0.0 | 0.00 | 0.00 | 0.00 | 67 | 1023.6 |
| 20260509061511 | 12 | 360 | 0.0 | 0.0 | 0.00 | 0.00 | 0.00 | 74 | 1023.5 |
| 20260509060013 | 11 | 186 | 0.0 | 0.0 | 0.00 | 0.00 | 0.00 | 79 | 1023.5 |
| 20260509054504 | 10 | 157 | 0.0 | 0.0 | 0.00 | 0.00 | 0.00 | 80 | 1023.5 |
| 20260509051558 | 7 | 147 | 0.0 | 0.0 | 0.00 | 0.00 | 0.00 | 86 | 1023.5 |
| 20260509050059 | 5 | 146 | 0.0 | 0.0 | 0.00 | 0.00 | 0.00 | 85 | 1023.4 |
| 20260509044556 | 5 | 146 | 0.0 | 0.0 | 0.00 | 0.00 | 0.00 | 84 | 1023.4 |
| 20260509041557 | 3 | 146 | 0.0 | 0.0 | 0.00 | 0.00 | 0.00 | 84 | 1023.3 |
| 20260509040125 | 3 | 147 | 0.0 | 0.0 | 0.00 | 0.00 | 0.00 | 84 | 1023.3 |
| 20260509034600 | 3 | 146 | 0.0 | 0.0 | 0.00 | 0.00 | 0.00 | 84 | 1023.4 |
| 20260509031558 | 3 | 146 | 0.0 | 0.0 | 0.00 | 0.00 | 0.00 | 83 | 1023.6 |
| 20260509030051 | 3 | 148 | 0.0 | 0.0 | 0.00 | 0.00 | 0.00 | 83 | 1023.5 |
| 20260509024550 | 3 | 148 | 0.0 | 0.0 | 0.00 | 0.00 | 0.00 | 82 | 1023.6 |
| 20260509021547 | 4 | 148 | 0.0 | 0.0 | 0.00 | 0.00 | 0.00 | 81 | 1023.7 |
| 20260509020045 | 5 | 146 | 0.0 | 0.0 | 0.00 | 0.00 | 0.00 | 80 | 1023.7 |
| 20260509014542 | 5 | 147 | 0.0 | 0.0 | 0.00 | 0.00 | 0.00 | 79 | 1023.6 |
| 20260509011553 | 6 | 146 | 0.0 | 0.0 | 0.00 | 0.00 | 0.00 | 78 | 1023.6 |
| 20260509010045 | 6 | 148 | 0.0 | 0.0 | 0.00 | 0.00 | 0.00 | 77 | 1023.9 |
| 20260509004548 | 6 | 138 | 0.0 | 0.0 | 0.00 | 0.00 | 0.00 | 79 | 1023.8 |
| 20260509001537 | 6 | 116 | 0.0 | 0.0 | 0.00 | 0.00 | 0.00 | 77 | 1023.9 |
| 20260509000035 | 6 | 117 | 0.0 | 0.0 | 0.00 | 0.00 | 0.00 | 76 | 1023.8 |
| 20260508234532 | 6 | 116 | 0.0 | 0.0 | 0.00 | 0.00 | 0.00 | 75 | 1023.8 |
| 20260508231529 | 7 | 116 | 0.0 | 0.0 | 0.00 | 0.00 | 0.00 | 73 | 1023.8 |
| 20260508230027 | 7 | 144 | 0.0 | 0.0 | 0.00 | 0.00 | 0.00 | 72 | 1023.9 |
| 20260508224527 | 7 | 144 | 0.0 | 0.0 | 0.00 | 0.00 | 0.00 | 71 | 1023.8 |
| 20260508221523 | 8 | 125 | 0.0 | 0.0 | 0.00 | 0.00 | 0.00 | 71 | 1023.8 |
| 20260508220024 | 8 | 126 | 0.0 | 0.0 | 0.00 | 0.00 | 0.00 | 71 | 1023.7 |
| 20260508214522 | 7 | 123 | 0.0 | 0.0 | 0.00 | 0.00 | 0.00 | 71 | 1023.7 |
| 20260508211521 | 7 | 136 | 0.0 | 0.0 | 0.00 | 0.00 | 0.00 | 71 | 1023.5 |
| 20260508210021 | 7 | 136 | 0.0 | 0.0 | 0.00 | 0.00 | 0.00 | 70 | 1023.5 |
| 20260508204530 | 8 | 138 | 0.0 | 0.0 | 0.00 | 0.00 | 0.00 | 69 | 1023.3 |
| 20260508201520 | 8 | 138 | 0.0 | 0.0 | 0.00 | 0.00 | 0.00 | 67 | 1023.1 |
| 20260508200017 | 9 | 137 | 0.0 | 0.0 | 0.00 | 0.00 | 0.00 | 65 | 1023.0 |
| 20260508194515 | 10 | 137 | 0.0 | 0.0 | 0.00 | 0.00 | 0.00 | 63 | 1022.9 |
| 20260508191528 | 11 | 245 | 0.0 | 0.0 | 0.00 | 0.00 | 0.00 | 57 | 1022.8 |
| 20260508190027 | 12 | 360 | 0.0 | 0.0 | 0.00 | 0.00 | 0.00 | 54 | 1022.7 |
| 20260508184528 | 12 | 245 | 0.0 | 0.0 | 0.00 | 0.00 | 0.00 | 49 | 1022.6 |
| 20260508181518 | 13 | 360 | 0.0 | 0.0 | 0.00 | 0.00 | 0.00 | 48 | 1022.5 |
| 20260508180020 | 13 | 360 | 0.0 | 0.0 | 0.00 | 0.00 | 0.00 | 46 | 1022.5 |
| 20260508174516 | 14 | 277 | 0.0 | 0.0 | 0.00 | 0.00 | 0.00 | 45 | 1022.5 |
| 20260508171514 | 15 | 296 | 0.0 | 0.0 | 0.00 | 0.00 | 0.00 | 43 | 1022.2 |
| 20260508170016 | 15 | 298 | 0.0 | 0.0 | 0.00 | 0.00 | 0.00 | 43 | 1022.2 |
| 20260508164514 | 16 | 360 | 0.0 | 0.0 | 0.00 | 0.00 | 0.00 | 43 | 1022.1 |
| 20260508161511 | 16 | 299 | 0.0 | 0.0 | 0.00 | 0.00 | 0.00 | 42 | 1022.1 |
| 20260508160025 | 17 | 360 | 0.0 | 0.0 | 0.00 | 0.00 | 0.00 | 40 | 1022.1 |
| 20260508154511 | 17 | 360 | 0.0 | 0.0 | 0.00 | 0.00 | 0.00 | 40 | 1022.2 |
| 20260508151516 | 17 | 313 | 0.0 | 0.0 | 0.00 | 0.00 | 0.00 | 37 | 1022.2 |
| 20260508150020 | 17 | 360 | 0.0 | 0.0 | 0.00 | 0.00 | 0.00 | 36 | 1022.2 |
| 20260508144515 | 18 | 297 | 0.0 | 0.0 | 0.00 | 0.00 | 0.00 | 36 | 1022.2 |
| 20260508141510 | 18 | 269 | 0.0 | 0.0 | 0.00 | 0.00 | 0.00 | 36 | 1022.2 |
| 20260508140016 | 18 | 237 | 0.0 | 0.0 | 0.00 | 0.00 | 0.00 | 37 | 1022.2 |
| 20260508134521 | 18 | 360 | 0.0 | 0.0 | 0.00 | 0.00 | 0.00 | 37 | 1022.3 |